Fort Riley, KS

3:37 AM CST on January 22, 2017 (GMT -0600)
Marshall Army Air Field

Weather History for KFRI - July, 2013

Change the Weather History Date:

Wednesday, July 10, 2013

  Actual Average (KMHK) Record (KMHK)
Temperature  
Mean Temperature 80 °F -  
Max Temperature 92 °F 89 °F 100 °F (2000)
Min Temperature 69 °F 64 °F 55 °F (1996)
Cooling Degree Days 16    
Growing Degree Days 30 (Base 50)    
Moisture  
Dew Point 67 °F    
Average Humidity 64    
Maximum Humidity 100    
Minimum Humidity 36    
Precipitation  
Precipitation 0.00 in - - ()
Sea Level Pressure  
Sea Level Pressure 29.98 in    
Wind  
Wind Speed 11 mph (NE)    
Max Wind Speed 18 mph    
Max Gust Speed 39 mph    
Visibility 10 miles    
Events      
Averages and records for this station are not official NWS values.
T = Trace of Precipitation, MM = Missing Value Source: NWS Daily Summary

Daily Weather History Graph

Daily Weather History Graph

Search for Another Location

Airport or City:

Trip Planner

Search our weather history database for the weather conditions in past years. The results will help you decide how hot, cold, wet, or windy it might be!

Date:

Astronomy

Jul. 10, 2013 Rise Set
Actual Time 6:10 AM CDT 8:54 PM CDT
Civil Twilight 5:38 AM CDT 9:25 PM CDT
Nautical Twilight 4:59 AM CDT 10:05 PM CDT
Astronomical Twilight 4:14 AM CDT 10:49 PM CDT
Moon 8:30 AM CDT (7/10) 10:06 PM CDT (7/10)
Length of Visible Light 15h 47m
Length of Day
14h 44m
Waxing Crescent, 5% of the Moon is Illuminated
Jul 10
Waxing Crescent
Jul 15
First Quarter
Jul 22
Full
Jul 29
Last Quarter
Aug 6
New

Hourly Weather History & Observations

Time (CDT) Temp. Heat Index Dew Point Humidity Pressure Visibility Wind Dir Wind Speed Gust Speed Precip Events Conditions
12:25 AM 77.0 °F - 66.2 °F 69% 29.94 in 10.0 mi SSW 17.3 mph 39.1 mph N/A   Clear
12:26 AM 77.0 °F - 66.2 °F 69% 29.94 in 10.0 mi SSW 16.1 mph 38.0 mph N/A   Clear
12:28 AM 77.0 °F - 64.4 °F 65% 29.96 in 10.0 mi West 13.8 mph 29.9 mph N/A   Clear
12:29 AM 77.0 °F - 64.4 °F 65% 29.96 in 10.0 mi West 12.7 mph 29.9 mph N/A   Clear
12:58 AM 77.2 °F - 66.4 °F 69% 29.93 in 10.0 mi SSW 8.1 mph - 0.00 in   Mostly Cloudy
1:58 AM 76.8 °F - 64.6 °F 66% 29.97 in 10.0 mi NNE 13.8 mph - N/A   Mostly Cloudy
2:58 AM 76.5 °F - 64.9 °F 67% 29.93 in 10.0 mi WNW 2.3 mph - N/A   Mostly Cloudy
3:58 AM 73.6 °F - 66.6 °F 79% 29.91 in 10.0 mi SSW 4.6 mph - N/A   Partly Cloudy
4:58 AM 72.9 °F - 67.5 °F 83% 29.94 in 10.0 mi SSW 3.5 mph - N/A   Clear
5:58 AM 70.7 °F - 69.3 °F 95% 29.96 in 10.0 mi North 1.2 mph - N/A   Clear
6:58 AM 69.4 °F - 69.4 °F 100% 29.96 in 10.0 mi ENE 3.5 mph - N/A   Clear
7:58 AM 74.7 °F - 67.8 °F 79% 29.98 in 10.0 mi Calm Calm - N/A   Clear
8:58 AM 77.4 °F - 69.6 °F 77% 30.01 in 10.0 mi NNE 4.6 mph - N/A   Clear
9:58 AM 82.2 °F 86.6 °F 71.1 °F 69% 30.00 in 10.0 mi ENE 10.4 mph - N/A   Clear
10:58 AM 84.4 °F 89.7 °F 71.6 °F 65% 30.01 in 10.0 mi NE 12.7 mph - N/A   Clear
11:58 AM 86.0 °F 90.7 °F 70.3 °F 59% 30.03 in 10.0 mi NE 18.4 mph - N/A   Partly Cloudy
12:58 PM 88.0 °F 92.5 °F 69.4 °F 54% 30.03 in 10.0 mi NE 13.8 mph - N/A   Clear
1:58 PM 90.0 °F 93.2 °F 67.3 °F 47% 30.02 in 10.0 mi ENE 12.7 mph 20.7 mph N/A   Clear
2:58 PM 91.2 °F 93.7 °F 66.0 °F 43% 30.01 in 10.0 mi ENE 12.7 mph - N/A   Clear
3:58 PM 92.3 °F 92.7 °F 61.7 °F 36% 30.00 in 10.0 mi ENE 13.8 mph - N/A   Clear
4:58 PM 92.3 °F 92.7 °F 61.5 °F 36% 29.99 in 10.0 mi ENE 12.7 mph - N/A   Clear
5:58 PM 91.8 °F 92.6 °F 63.0 °F 38% 29.96 in 10.0 mi NE 13.8 mph - N/A   Clear
6:58 PM 89.1 °F 91.3 °F 66.0 °F 46% 29.97 in 10.0 mi NE 10.4 mph - N/A   Clear
7:58 PM 85.6 °F 88.2 °F 66.7 °F 53% 29.96 in 10.0 mi NE 5.8 mph - N/A   Clear
8:58 PM 80.4 °F 82.4 °F 65.7 °F 61% 29.96 in 10.0 mi ENE 5.8 mph - N/A   Clear
9:58 PM 77.7 °F - 65.7 °F 66% 29.98 in 10.0 mi East 4.6 mph - N/A   Clear
10:58 PM 75.9 °F - 65.1 °F 69% 30.00 in 10.0 mi East 6.9 mph - N/A   Clear
11:58 PM 74.1 °F - 63.9 °F 70% 30.01 in 10.0 mi ENE 6.9 mph - N/A   Clear